Tracking 17782 objects as of 25-July-2016
HD Live streaming from Space Station
objects crossing your sky now

DELTA 1 DEB

Track DELTA 1 DEB now!
10-day predictions


NORAD ID: 2888
Int'l Code: 1965-089D
Perigee: 1,745.2 km
Apogee: 1,745.2 km
Inclination: 59.2 °
Period: 121.3 minutes
Semi major axis: 8116 km
RCS: 0.0459 m2 (small)
Launch date: November 6, 1965
Source: United States (US)
Launch site: AIR FORCE EASTERN TEST RANGE (AFETR)

Note: This is SATELLITE DEBRIS
Your satellite tracking list
Your tracking list is empty





NASA's NSSDC Master Catalog

Two Line Element Set (TLE):
1 02888U 65089D   16202.18429551 -.00000092  00000-0 -13881-3 0  9997
2 02888  59.2041  98.3812 0717596 345.3574  88.6737 11.87337637145146
Source of the keplerian elements: AFSPC

N2YO: 707